| time (UTC) | temp F | wind direction | speed MPH | gust MPH | rain 1hr in | rain 24hr in | rain mn in | humidity % | barometer mb |
| 20260902000046 | 87 | 201 | 0.0 | 3.0 | 0.00 | 0.02 | 0.02 | 76 | 1012.5 |
| 20260901234540 | 88 | 190 | 0.0 | 4.0 | 0.00 | 0.05 | 0.02 | 75 | 1012.6 |
| 20260901233039 | 89 | 223 | 1.0 | 4.0 | 0.00 | 0.05 | 0.02 | 73 | 1012.6 |
| 20260901231538 | 89 | 173 | 1.0 | 5.0 | 0.00 | 0.05 | 0.02 | 71 | 1012.8 |
| 20260901230037 | 90 | 198 | 2.0 | 6.0 | 0.00 | 0.05 | 0.02 | 70 | 1012.8 |
| 20260901224539 | 90 | 184 | 2.0 | 4.0 | 0.00 | 0.08 | 0.02 | 69 | 1012.7 |
| 20260901223037 | 90 | 182 | 1.0 | 5.0 | 0.00 | 0.08 | 0.02 | 71 | 1012.7 |
| 20260901221547 | 92 | 210 | 0.0 | 4.0 | 0.00 | 0.08 | 0.02 | 69 | 1012.7 |
| 20260901220037 | 92 | 182 | 2.0 | 8.0 | 0.00 | 0.08 | 0.02 | 69 | 1012.7 |
| 20260901214547 | 91 | 169 | 1.0 | 4.0 | 0.00 | 0.08 | 0.02 | 67 | 1012.7 |
| 20260901213033 | 92 | 169 | 2.0 | 6.0 | 0.00 | 0.08 | 0.02 | 70 | 1012.7 |
| 20260901211533 | 92 | 199 | 1.0 | 5.0 | 0.00 | 0.08 | 0.02 | 68 | 1012.8 |
| 20260901210032 | 92 | 216 | 0.0 | 5.0 | 0.00 | 0.08 | 0.02 | 68 | 1012.9 |
| 20260901204536 | 92 | 205 | 1.0 | 4.0 | 0.00 | 0.08 | 0.02 | 65 | 1012.9 |
| 20260901203031 | 92 | 203 | 1.0 | 7.0 | 0.00 | 0.08 | 0.02 | 64 | 1013.0 |
| 20260901201530 | 93 | 204 | 4.0 | 9.0 | 0.00 | 0.08 | 0.02 | 64 | 1013.0 |
| 20260901200028 | 92 | 199 | 2.0 | 7.0 | 0.00 | 0.08 | 0.02 | 65 | 1013.1 |
| 20260901194532 | 92 | 196 | 3.0 | 8.0 | 0.00 | 0.08 | 0.02 | 64 | 1013.1 |
| 20260901193031 | 93 | 176 | 1.0 | 8.0 | 0.00 | 0.08 | 0.02 | 66 | 1013.3 |
| 20260901191537 | 93 | 250 | 1.0 | 6.0 | 0.00 | 0.08 | 0.02 | 63 | 1013.4 |
| 20260901190026 | 93 | 242 | 1.0 | 4.0 | 0.00 | 0.08 | 0.02 | 66 | 1013.4 |
| 20260901184521 | 92 | 261 | 1.0 | 8.0 | 0.00 | 0.08 | 0.02 | 66 | 1013.5 |
| 20260901183031 | 91 | 188 | 3.0 | 7.0 | 0.00 | 0.08 | 0.02 | 68 | 1013.7 |
| 20260901181519 | 91 | 205 | 1.0 | 5.0 | 0.00 | 0.08 | 0.02 | 69 | 1013.9 |
| 20260901180018 | 91 | 186 | 0.0 | 6.0 | 0.00 | 0.08 | 0.02 | 69 | 1013.8 |
| 20260901174515 | 90 | 242 | 0.0 | 5.0 | 0.00 | 0.08 | 0.02 | 71 | 1013.9 |
| 20260901173011 | 90 | 194 | 2.0 | 6.0 | 0.00 | 0.08 | 0.02 | 72 | 1013.9 |
| 20260901171509 | 89 | 192 | 2.0 | 6.0 | 0.00 | 0.08 | 0.02 | 74 | 1014.1 |
| 20260901170008 | 89 | 177 | 1.0 | 7.0 | 0.00 | 0.08 | 0.02 | 74 | 1014.1 |
| 20260901164506 | 88 | 232 | 2.0 | 6.0 | 0.00 | 0.08 | 0.02 | 74 | 1014.2 |
| 20260901163002 | 86 | 245 | 2.0 | 5.0 | 0.00 | 0.08 | 0.02 | 77 | 1014.3 |
| 20260901161503 | 85 | 187 | 1.0 | 6.0 | 0.00 | 0.08 | 0.02 | 77 | 1014.3 |
| 20260901154617 | 85 | 232 | 0.0 | 4.0 | 0.00 | 0.12 | 0.02 | 78 | 1014.5 |
| 20260901153103 | 84 | 216 | 0.0 | 3.0 | 0.00 | 0.12 | 0.02 | 79 | 1014.4 |
| 20260901151550 | 83 | 238 | 0.0 | 5.0 | 0.00 | 0.12 | 0.02 | 80 | 1014.4 |
| 20260901150055 | 82 | 283 | 0.0 | 3.0 | 0.00 | 0.12 | 0.02 | 81 | 1014.3 |
| 20260901144545 | 82 | 200 | 0.0 | 3.0 | 0.00 | 0.12 | 0.02 | 82 | 1014.3 |
| 20260901143042 | 80 | 237 | 0.0 | 6.0 | 0.00 | 0.12 | 0.02 | 83 | 1014.2 |
| 20260901141548 | 79 | 233 | 0.0 | 3.0 | 0.00 | 0.12 | 0.02 | 84 | 1014.2 |
| 20260901140034 | 78 | 360 | 1.0 | 6.0 | 0.00 | 0.12 | 0.02 | 86 | 1014.3 |
| 20260901134535 | 77 | 297 | 0.0 | 5.0 | 0.00 | 0.12 | 0.02 | 89 | 1014.3 |
| 20260901133034 | 76 | 265 | 1.0 | 4.0 | 0.00 | 0.12 | 0.02 | 90 | 1014.4 |
| 20260901131533 | 75 | 194 | 0.0 | 3.0 | 0.00 | 0.12 | 0.02 | 91 | 1014.5 |
| 20260901130033 | 75 | 196 | 0.0 | 2.0 | 0.00 | 0.12 | 0.02 | 92 | 1014.6 |
| 20260901124540 | 74 | 197 | 0.0 | 0.0 | 0.00 | 0.15 | 0.02 | 92 | 1014.5 |
| 20260901123031 | 74 | 197 | 0.0 | 0.0 | 0.00 | 0.15 | 0.02 | 93 | 1014.4 |
| 20260901121529 | 74 | 197 | 0.0 | 3.0 | 0.00 | 0.15 | 0.02 | 93 | 1014.3 |
| 20260901120028 | 74 | 198 | 0.0 | 0.0 | 0.01 | 0.15 | 0.02 | 93 | 1014.2 |
| 20260901114527 | 74 | 198 | 0.0 | 0.0 | 0.01 | 0.15 | 0.02 | 93 | 1013.9 |
| 20260901113025 | 74 | 198 | 0.0 | 0.0 | 0.01 | 0.15 | 0.02 | 92 | 1013.8 |
| 20260901111522 | 75 | 198 | 0.0 | 0.0 | 0.00 | 0.14 | 0.01 | 91 | 1013.6 |
| 20260901110020 | 75 | 198 | 0.0 | 0.0 | 0.00 | 0.14 | 0.01 | 90 | 1013.4 |
| 20260901104520 | 75 | 197 | 0.0 | 3.0 | 0.00 | 0.14 | 0.01 | 90 | 1013.3 |
| 20260901103020 | 75 | 196 | 0.0 | 3.0 | 0.00 | 0.14 | 0.01 | 90 | 1013.1 |
| 20260901101518 | 75 | 201 | 0.0 | 0.0 | 0.00 | 0.14 | 0.01 | 90 | 1013.2 |
| 20260901100017 | 76 | 223 | 0.0 | 2.0 | 0.01 | 0.14 | 0.01 | 89 | 1013.1 |
| 20260901094521 | 76 | 223 | 0.0 | 1.0 | 0.01 | 0.14 | 0.01 | 89 | 1013.3 |
| 20260901093015 | 76 | 214 | 0.0 | 0.0 | 0.01 | 0.14 | 0.01 | 88 | 1013.4 |
| 20260901091513 | 76 | 214 | 0.0 | 2.0 | 0.01 | 0.14 | 0.01 | 87 | 1013.2 |
| 20260901090012 | 77 | 217 | 0.0 | 0.0 | 0.00 | 0.13 | 0.00 | 87 | 1013.2 |
| 20260901084512 | 77 | 217 | 0.0 | 3.0 | 0.00 | 0.13 | 0.00 | 86 | 1013.0 |
| 20260901083011 | 77 | 247 | 0.0 | 4.0 | 0.00 | 0.13 | 0.00 | 85 | 1013.1 |
| 20260901081510 | 77 | 265 | 0.0 | 4.0 | 0.00 | 0.13 | 0.00 | 84 | 1013.1 |
| 20260901080010 | 78 | 240 | 1.0 | 6.0 | 0.00 | 0.13 | 0.00 | 83 | 1013.0 |
| 20260901074510 | 78 | 229 | 1.0 | 5.0 | 0.00 | 0.13 | 0.00 | 83 | 1013.1 |
| 20260901073009 | 78 | 234 | 0.0 | 4.0 | 0.00 | 0.13 | 0.00 | 83 | 1013.0 |
| 20260901071508 | 78 | 242 | 1.0 | 4.0 | 0.00 | 0.13 | 0.00 | 83 | 1013.0 |
| 20260901070007 | 78 | 207 | 0.0 | 3.0 | 0.00 | 0.13 | 0.00 | 83 | 1013.0 |
| 20260901064515 | 78 | 244 | 1.0 | 6.0 | 0.00 | 0.13 | 0.00 | 83 | 1013.0 |
| 20260901063014 | 78 | 250 | 1.0 | 8.0 | 0.00 | 0.13 | 0.00 | 84 | 1012.9 |
| 20260901061503 | 77 | 206 | 2.0 | 5.0 | 0.00 | 0.13 | 0.00 | 85 | 1012.7 |
| 20260901060101 | 77 | 202 | 2.0 | 5.0 | 0.00 | 0.13 | 0.00 | 87 | 1012.8 |
| 20260901054559 | 76 | 190 | 1.0 | 5.0 | 0.00 | 0.13 | 0.00 | 89 | 1012.8 |
| 20260901053103 | 76 | 188 | 1.0 | 5.0 | 0.00 | 0.13 | 0.00 | 91 | 1012.9 |
| 20260901051555 | 76 | 195 | 0.0 | 3.0 | 0.00 | 0.13 | 0.00 | 91 | 1012.9 |
| 20260901050053 | 76 | 195 | 0.0 | 3.0 | 0.00 | 0.13 | 0.00 | 92 | 1013.0 |
| 20260901044557 | 76 | 197 | 0.0 | 0.0 | 0.00 | 0.13 | 0.13 | 90 | 1012.9 |
| 20260901043052 | 77 | 198 | 0.0 | 0.0 | 0.00 | 0.13 | 0.13 | 90 | 1013.1 |
| 20260901041651 | 77 | 197 | 0.0 | 5.0 | 0.00 | 0.13 | 0.13 | 91 | 1013.1 |
| 20260901040050 | 76 | 193 | 1.0 | 4.0 | 0.00 | 0.13 | 0.13 | 92 | 1013.1 |
| 20260901034551 | 77 | 209 | 0.0 | 2.0 | 0.00 | 0.13 | 0.13 | 93 | 1013.1 |
| 20260901033050 | 76 | 209 | 0.0 | 4.0 | 0.00 | 0.13 | 0.13 | 94 | 1013.0 |
| 20260901031549 | 76 | 191 | 0.0 | 2.0 | 0.00 | 0.13 | 0.13 | 94 | 1013.1 |
| 20260901030049 | 76 | 201 | 0.0 | 3.0 | 0.00 | 0.13 | 0.13 | 95 | 1013.1 |
| 20260901024549 | 76 | 202 | 0.0 | 1.0 | 0.00 | 0.13 | 0.13 | 94 | 1013.1 |
| 20260901023048 | 76 | 183 | 0.0 | 3.0 | 0.00 | 0.13 | 0.13 | 94 | 1013.2 |
| 20260901021547 | 76 | 179 | 0.0 | 3.0 | 0.00 | 0.13 | 0.13 | 95 | 1013.1 |
| 20260901020051 | 76 | 195 | 0.0 | 1.0 | 0.00 | 0.13 | 0.13 | 94 | 1013.1 |
| 20260901014547 | 75 | 206 | 0.0 | 0.0 | 0.00 | 0.15 | 0.13 | 94 | 1013.1 |
| 20260901013053 | 75 | 206 | 0.0 | 0.0 | 0.00 | 0.15 | 0.13 | 94 | 1013.0 |
| 20260901011545 | 76 | 206 | 0.0 | 0.0 | 0.00 | 0.15 | 0.13 | 93 | 1013.0 |
| 20260901010046 | 76 | 206 | 0.0 | 0.0 | 0.00 | 0.15 | 0.13 | 93 | 1012.7 |
| 20260901004544 | 77 | 206 | 0.0 | 0.0 | 0.00 | 0.15 | 0.13 | 92 | 1012.8 |
| 20260901003044 | 77 | 206 | 0.0 | 0.0 | 0.00 | 0.15 | 0.13 | 92 | 1012.8 |
| 20260901001544 | 78 | 206 | 0.0 | 0.0 | 0.03 | 0.15 | 0.13 | 91 | 1012.7 |